Weather History for Ottumwa, IA

Change the Weather History Date:

Saturday, October 4, 2014

  Actual Average Record
Temperature  
Mean Temperature 43 °F 57 °F  
Max Temperature 52 °F 68 °F 96 °F (1938)
Min Temperature 34 °F 45 °F 23 °F (1935)
Degree Days  
Heating Degree Days 22 9  
Month to date heating degree days 46 34  
Since 1 July heating degree days 180 155  
Cooling Degree Days 0 1  
Month to date cooling degree days 0 4  
Year to date cooling degree days 800 931  
Moisture  
Dew Point 28 °F    
Average Humidity 62    
Maximum Humidity 82    
Minimum Humidity 41    
Precipitation  
Precipitation 0.00 in 0.10 in 2.04 in (1959)
Month to date precipitation 0.98 0.40  
Year to date precipitation 36.11 30.89  
Sea Level Pressure  
Sea Level Pressure 29.90 in    
Wind  
Wind Speed 12 mph (West)    
Max Wind Speed 24 mph    
Max Gust Speed 30 mph    
Visibility 10 miles    
Events      
T = Trace of Precipitation, MM = Missing Value Source: NWS Daily Summary

Daily Weather History Graph

Daily Weather History Graph

Search for Another Location

Airport:

Trip Planner

Search our weather history database for the weather conditions in past years. The results will help you decide how hot, cold, wet, or windy it might be!

Date:

Astronomy

Oct. 04, 2014 Rise Set
Actual Time 7:09 AM CDT 6:46 PM CDT
Civil Twilight 6:42 AM CDT 7:14 PM CDT
Nautical Twilight 6:10 AM CDT 7:45 PM CDT
Astronomical Twilight 5:38 AM CDT 8:18 PM CDT
Moon 4:25 PM CDT (10/4) 2:35 AM CDT (10/4)
Length of Visible Light 12h 32m
Length of Day
11h 37m
Waxing Gibbous, 81% of the Moon is Illuminated
Oct 4
Waxing Gibbous
Oct 8
Full
Oct 15
Last Quarter
Oct 23
New
Oct 30
First Quarter

Hourly Weather History & Observations

Time (CDT) Temp. Windchill Dew Point Humidity Pressure Visibility Wind Dir Wind Speed Gust Speed Precip Events Conditions
12:53 AM 39.9 °F 32.1 °F 23.0 °F 51% 29.94 in 10.0 mi WNW 13.8 mph 25.3 mph N/A   Overcast
1:53 AM 37.0 °F 30.4 °F 23.0 °F 57% 29.94 in 10.0 mi WNW 9.2 mph - N/A   Partly Cloudy
2:53 AM 37.0 °F 29.3 °F 24.1 °F 59% 29.94 in 10.0 mi West 11.5 mph - N/A   Scattered Clouds
3:53 AM 36.0 °F 28.0 °F 24.1 °F 62% 29.92 in 10.0 mi West 11.5 mph - N/A   Clear
4:53 AM 35.1 °F 25.9 °F 25.0 °F 67% 29.91 in 10.0 mi West 13.8 mph - N/A   Clear
5:53 AM 35.1 °F 26.4 °F 25.0 °F 67% 29.91 in 10.0 mi West 12.7 mph - N/A   Clear
6:53 AM 34.0 °F 26.0 °F 25.0 °F 70% 29.91 in 10.0 mi West 10.4 mph - N/A   Clear
7:53 AM 35.1 °F 25.9 °F 26.1 °F 70% 29.91 in 10.0 mi WNW 13.8 mph 21.9 mph N/A   Clear
8:53 AM 39.0 °F 29.6 °F 27.0 °F 62% 29.92 in 10.0 mi WNW 18.4 mph 24.2 mph N/A   Clear
9:53 AM 43.0 °F 34.8 °F 28.9 °F 58% 29.93 in 10.0 mi WNW 18.4 mph 26.5 mph N/A   Clear
10:53 AM 45.0 °F 37.4 °F 30.0 °F 56% 29.93 in 10.0 mi West 18.4 mph - N/A   Clear
11:53 AM 48.0 °F - 32.0 °F 54% 29.93 in 10.0 mi West 17.3 mph 23.0 mph N/A   Clear
12:53 PM 50.0 °F - 32.0 °F 50% 29.92 in 10.0 mi West 18.4 mph 26.5 mph N/A   Partly Cloudy
1:53 PM 51.1 °F - 30.0 °F 44% 29.91 in 10.0 mi West 18.4 mph 24.2 mph N/A   Scattered Clouds
2:53 PM 51.1 °F - 28.0 °F 41% 29.91 in 10.0 mi WNW 17.3 mph 29.9 mph N/A   Scattered Clouds
3:53 PM 51.1 °F - 28.0 °F 41% 29.89 in 10.0 mi WNW 18.4 mph 26.5 mph N/A   Partly Cloudy
4:53 PM 52.0 °F - 28.9 °F 41% 29.89 in 10.0 mi WNW 16.1 mph 23.0 mph N/A   Partly Cloudy
5:53 PM 48.0 °F - 30.0 °F 50% 29.88 in 10.0 mi WNW 8.1 mph - N/A   Partly Cloudy
6:53 PM 44.6 °F 40.7 °F 30.2 °F 57% 29.86 in 10.0 mi WSW 6.9 mph - N/A   Clear
7:53 PM 41.0 °F 37.1 °F 30.9 °F 67% 29.88 in 10.0 mi WSW 5.8 mph - N/A   Clear
8:53 PM 41.0 °F 37.1 °F 30.9 °F 67% 29.86 in 10.0 mi SW 5.8 mph - N/A   Clear
9:53 PM 37.9 °F 33.5 °F 30.9 °F 76% 29.85 in 10.0 mi SW 5.8 mph - N/A   Clear
10:53 PM 35.1 °F - 30.9 °F 85% 29.84 in 10.0 mi Calm Calm - N/A   Clear
11:53 PM 36.0 °F 32.1 °F 30.9 °F 82% 29.82 in 10.0 mi WSW 4.6 mph - N/A   Clear